User: anonymous   Login
Location: *
(37.5724°S, 58.0067°E)
Time: 08:51:11
(UTC+00:00)
Language:

Cosmos 1766 - Orbit

View from above orbital plane
View from above orbital plane
View from above satellite
View from above satellite

Ground track
Ground track

The orbit data is extracted from the following two-line orbital elements,

1 16881U 86055A   20329.88405931 +.00001612 +00000-0 +93962-4 0  9995
2 16881 082.5080 233.2615 0018233 095.2183 265.1129 15.11160275850004
Epoch (UTC): 24 November 2020 21:13:02
Eccentricity: 0.0018233
inclination: 82.5080°
perigee height: 520 km
apogee height: 545 km
right ascension of ascending node: 233.2615°
argument of perigee: 95.2183°
revolutions per day: 15.11160275
mean anomaly at epoch: 265.1129°
orbit number at epoch: 85000

The dashed part of the orbit path shows where the satellite is in the earth's shadow,  

DLR